| time (UTC) | temp F | wind direction | speed knots | gust knots | rain 1hr in | rain 24hr in | rain mn in | humidity % | barometer mb |
| 20260905223053 | 55 | 317 | 4.3 | 11.3 | 0.00 | 0.00 | 0.00 | 81 | 1014.6 |
| 20260905221546 | 56 | 253 | 4.3 | 7.8 | 0.00 | 0.00 | 0.00 | 81 | 1014.6 |
| 20260905220048 | 56 | 326 | 4.3 | 14.8 | 0.00 | 0.00 | 0.00 | 80 | 1014.5 |
| 20260905214541 | 56 | 300 | 5.2 | 10.4 | 0.00 | 0.00 | 0.00 | 80 | 1014.4 |
| 20260905213038 | 56 | 329 | 3.5 | 10.4 | 0.00 | 0.00 | 0.00 | 80 | 1014.4 |
| 20260905211536 | 56 | 297 | 4.3 | 9.6 | 0.00 | 0.00 | 0.00 | 79 | 1014.3 |
| 20260905210033 | 57 | 302 | 3.5 | 7.8 | 0.00 | 0.00 | 0.00 | 76 | 1014.1 |
| 20260905204529 | 58 | 297 | 5.2 | 10.4 | 0.00 | 0.01 | 0.00 | 75 | 1014.1 |
| 20260905203027 | 58 | 274 | 4.3 | 12.2 | 0.00 | 0.01 | 0.00 | 74 | 1013.9 |
| 20260905201527 | 58 | 307 | 5.2 | 11.3 | 0.00 | 0.01 | 0.00 | 73 | 1013.7 |
| 20260905200024 | 58 | 281 | 3.5 | 9.6 | 0.00 | 0.01 | 0.00 | 73 | 1013.6 |
| 20260905194522 | 59 | 332 | 6.1 | 13.9 | 0.00 | 0.13 | 0.00 | 74 | 1013.6 |
| 20260905193020 | 59 | 296 | 5.2 | 16.5 | 0.00 | 0.13 | 0.00 | 74 | 1013.6 |
| 20260905191518 | 59 | 259 | 7.0 | 14.8 | 0.00 | 0.13 | 0.00 | 74 | 1013.6 |
| 20260905190016 | 59 | 293 | 3.5 | 9.6 | 0.00 | 0.13 | 0.00 | 77 | 1013.5 |
| 20260905184515 | 59 | 227 | 3.5 | 11.3 | 0.00 | 0.13 | 0.00 | 76 | 1013.6 |
| 20260905183012 | 60 | 247 | 2.6 | 10.4 | 0.00 | 0.13 | 0.00 | 72 | 1013.6 |
| 20260905181512 | 60 | 227 | 2.6 | 7.8 | 0.00 | 0.13 | 0.00 | 70 | 1013.9 |
| 20260905180012 | 61 | 303 | 2.6 | 7.0 | 0.00 | 0.13 | 0.00 | 69 | 1013.7 |
| 20260905174513 | 61 | 291 | 3.5 | 7.8 | 0.00 | 0.13 | 0.00 | 69 | 1013.6 |
| 20260905173020 | 61 | 299 | 3.5 | 7.0 | 0.00 | 0.13 | 0.00 | 69 | 1013.5 |
| 20260905171509 | 62 | 315 | 3.5 | 13.9 | 0.00 | 0.13 | 0.00 | 68 | 1013.4 |
| 20260905170006 | 62 | 276 | 5.2 | 10.4 | 0.00 | 0.13 | 0.00 | 68 | 1013.4 |
| 20260905164505 | 62 | 252 | 4.3 | 10.4 | 0.00 | 0.13 | 0.00 | 67 | 1013.4 |
| 20260905163003 | 62 | 271 | 3.5 | 10.4 | 0.00 | 0.13 | 0.00 | 67 | 1013.1 |
| 20260905161503 | 62 | 278 | 5.2 | 12.2 | 0.00 | 0.13 | 0.00 | 65 | 1013.0 |
| 20260905160003 | 62 | 288 | 4.3 | 12.2 | 0.00 | 0.13 | 0.00 | 64 | 1012.9 |
| 20260905154501 | 63 | 310 | 5.2 | 13.9 | 0.00 | 0.13 | 0.00 | 63 | 1013.0 |
| 20260905153101 | 63 | 335 | 4.3 | 13.9 | 0.00 | 0.13 | 0.00 | 63 | 1013.0 |
| 20260905151600 | 64 | 278 | 9.6 | 19.1 | 0.00 | 0.13 | 0.00 | 59 | 1013.1 |
| 20260905150058 | 65 | 288 | 10.4 | 20.0 | 0.00 | 0.13 | 0.00 | 58 | 1013.0 |
| 20260905144556 | 66 | 322 | 9.6 | 18.2 | 0.00 | 0.13 | 0.00 | 58 | 1012.7 |
| 20260905143055 | 67 | 300 | 9.6 | 18.2 | 0.00 | 0.13 | 0.00 | 57 | 1012.4 |
| 20260905141605 | 67 | 316 | 7.8 | 14.8 | 0.00 | 0.13 | 0.00 | 55 | 1012.2 |
| 20260905140054 | 68 | 314 | 6.1 | 15.6 | 0.00 | 0.13 | 0.00 | 54 | 1012.0 |
| 20260905134552 | 69 | 269 | 6.1 | 14.8 | 0.00 | 0.13 | 0.00 | 53 | 1011.9 |
| 20260905133049 | 68 | 328 | 9.6 | 18.2 | 0.00 | 0.13 | 0.00 | 54 | 1011.9 |
| 20260905131600 | 68 | 279 | 5.2 | 16.5 | 0.00 | 0.13 | 0.00 | 57 | 1012.0 |
| 20260905130049 | 67 | 274 | 5.2 | 12.2 | 0.00 | 0.13 | 0.00 | 57 | 1012.0 |
| 20260905124551 | 69 | 290 | 7.8 | 19.1 | 0.00 | 0.13 | 0.00 | 53 | 1011.9 |
| 20260905123054 | 68 | 249 | 6.1 | 15.6 | 0.00 | 0.13 | 0.00 | 55 | 1011.9 |
| 20260905121545 | 68 | 293 | 9.6 | 17.4 | 0.00 | 0.13 | 0.00 | 53 | 1011.9 |
| 20260905120042 | 67 | 305 | 8.7 | 20.0 | 0.00 | 0.13 | 0.00 | 55 | 1012.0 |
| 20260905114545 | 68 | 308 | 13.0 | 21.7 | 0.00 | 0.13 | 0.00 | 52 | 1012.0 |
| 20260905113042 | 67 | 296 | 9.6 | 23.5 | 0.00 | 0.13 | 0.00 | 53 | 1011.9 |
| 20260905111550 | 68 | 300 | 9.6 | 21.7 | 0.00 | 0.13 | 0.00 | 52 | 1011.7 |
| 20260905110037 | 67 | 323 | 8.7 | 18.2 | 0.00 | 0.13 | 0.00 | 55 | 1011.8 |
| 20260905104535 | 67 | 271 | 13.0 | 22.6 | 0.00 | 0.13 | 0.00 | 55 | 1011.6 |
| 20260905103033 | 67 | 304 | 11.3 | 23.5 | 0.00 | 0.13 | 0.00 | 60 | 1011.5 |
| 20260905101538 | 66 | 290 | 8.7 | 23.5 | 0.00 | 0.13 | 0.00 | 60 | 1011.5 |
| 20260905100028 | 65 | 258 | 6.1 | 14.8 | 0.00 | 0.13 | 0.00 | 64 | 1011.4 |
| 20260905094525 | 64 | 317 | 8.7 | 18.2 | 0.00 | 0.13 | 0.00 | 64 | 1011.2 |
| 20260905093024 | 65 | 297 | 7.0 | 22.6 | 0.00 | 0.13 | 0.00 | 64 | 1011.2 |
| 20260905091522 | 66 | 314 | 10.4 | 21.7 | 0.00 | 0.13 | 0.00 | 59 | 1011.0 |
| 20260905090020 | 64 | 303 | 9.6 | 20.9 | 0.00 | 0.13 | 0.00 | 63 | 1010.9 |
| 20260905084546 | 64 | 309 | 13.0 | 25.2 | 0.00 | 0.13 | 0.00 | 64 | 1011.0 |
| 20260905083020 | 64 | 271 | 8.7 | 19.1 | 0.00 | 0.13 | 0.00 | 65 | 1010.9 |
| 20260905081512 | 64 | 249 | 7.8 | 17.4 | 0.00 | 0.13 | 0.00 | 68 | 1010.7 |
| 20260905080011 | 63 | 283 | 7.8 | 15.6 | 0.00 | 0.13 | 0.00 | 69 | 1010.7 |
| 20260905074509 | 63 | 295 | 5.2 | 17.4 | 0.00 | 0.13 | 0.00 | 71 | 1010.6 |
| 20260905073014 | 63 | 299 | 10.4 | 20.0 | 0.00 | 0.13 | 0.00 | 70 | 1010.4 |
| 20260905071505 | 62 | 315 | 9.6 | 20.9 | 0.00 | 0.13 | 0.00 | 71 | 1010.4 |
| 20260905070004 | 62 | 299 | 7.0 | 20.0 | 0.00 | 0.13 | 0.00 | 72 | 1010.1 |
| 20260905064502 | 62 | 299 | 9.6 | 20.0 | 0.00 | 0.13 | 0.00 | 72 | 1010.1 |
| 20260905063059 | 61 | 283 | 5.2 | 19.1 | 0.00 | 0.13 | 0.00 | 73 | 1009.8 |
| 20260905061616 | 61 | 318 | 7.0 | 17.4 | 0.00 | 0.13 | 0.00 | 72 | 1009.5 |
| 20260905060055 | 61 | 310 | 7.0 | 13.0 | 0.00 | 0.13 | 0.00 | 73 | 1009.5 |
| 20260905054553 | 60 | 309 | 7.0 | 13.9 | 0.00 | 0.13 | 0.00 | 73 | 1009.4 |
| 20260905053058 | 60 | 284 | 5.2 | 14.8 | 0.00 | 0.13 | 0.00 | 73 | 1009.3 |
| 20260905051548 | 60 | 264 | 6.1 | 19.1 | 0.00 | 0.13 | 0.00 | 74 | 1009.1 |
| 20260905050044 | 60 | 309 | 6.1 | 17.4 | 0.00 | 0.13 | 0.00 | 74 | 1008.8 |
| 20260905044642 | 60 | 284 | 5.2 | 16.5 | 0.00 | 0.13 | 0.00 | 74 | 1008.6 |
| 20260905043037 | 60 | 293 | 6.1 | 14.8 | 0.00 | 0.13 | 0.00 | 74 | 1008.3 |
| 20260905041536 | 60 | 325 | 6.1 | 14.8 | 0.00 | 0.13 | 0.00 | 77 | 1008.1 |
| 20260905040032 | 60 | 337 | 7.8 | 14.8 | 0.00 | 0.13 | 0.00 | 79 | 1007.7 |
| 20260905034530 | 59 | 291 | 5.2 | 13.9 | 0.00 | 0.13 | 0.00 | 83 | 1007.5 |
| 20260905033025 | 59 | 290 | 6.1 | 13.0 | 0.00 | 0.13 | 0.00 | 84 | 1007.0 |
| 20260905031531 | 61 | 343 | 8.7 | 15.6 | 0.00 | 0.13 | 0.00 | 78 | 1006.8 |
| 20260905030025 | 62 | 223 | 4.3 | 13.0 | 0.00 | 0.13 | 0.00 | 80 | 1006.5 |
| 20260905024514 | 62 | 313 | 4.3 | 16.5 | 0.00 | 0.13 | 0.00 | 80 | 1006.3 |
| 20260905023024 | 62 | 315 | 7.0 | 13.0 | 0.00 | 0.13 | 0.00 | 81 | 1006.3 |
| 20260905021511 | 62 | 288 | 7.8 | 17.4 | 0.00 | 0.13 | 0.00 | 81 | 1006.4 |
| 20260905020007 | 63 | 253 | 7.0 | 13.9 | 0.00 | 0.13 | 0.00 | 80 | 1006.1 |
| 20260905014507 | 63 | 276 | 5.2 | 13.0 | 0.00 | 0.13 | 0.00 | 80 | 1005.7 |
| 20260905013002 | 63 | 321 | 7.0 | 14.8 | 0.00 | 0.13 | 0.00 | 80 | 1005.8 |
| 20260905011501 | 64 | 272 | 6.1 | 18.2 | 0.00 | 0.13 | 0.00 | 81 | 1005.8 |
| 20260905010103 | 64 | 293 | 5.2 | 13.9 | 0.00 | 0.13 | 0.00 | 82 | 1005.6 |
| 20260905004600 | 64 | 227 | 7.0 | 14.8 | 0.00 | 0.13 | 0.00 | 82 | 1005.2 |
| 20260905003053 | 64 | 293 | 7.0 | 15.6 | 0.00 | 0.13 | 0.00 | 84 | 1004.9 |
| 20260905001550 | 64 | 265 | 7.0 | 14.8 | 0.00 | 0.13 | 0.00 | 85 | 1004.8 |
| 20260905000049 | 64 | 269 | 4.3 | 11.3 | 0.00 | 0.13 | 0.00 | 86 | 1005.0 |
| 20260904234550 | 64 | 226 | 3.5 | 9.6 | 0.00 | 0.13 | 0.00 | 88 | 1004.9 |
| 20260904233058 | 64 | 274 | 3.5 | 12.2 | 0.00 | 0.13 | 0.00 | 88 | 1004.6 |
| 20260904231543 | 64 | 257 | 4.3 | 12.2 | 0.00 | 0.13 | 0.00 | 89 | 1004.7 |
| 20260904230043 | 64 | 315 | 5.2 | 11.3 | 0.00 | 0.13 | 0.00 | 89 | 1004.9 |
| 20260904224545 | 63 | 303 | 2.6 | 7.8 | 0.00 | 0.16 | 0.00 | 89 | 1004.8 |